Total_Precipitation_Accumulation
0.01 0.01 0.02 0.10 0.12 0.02 0.00 0.00 0.00 0.02 0.11 0.03 0.01 0.03 0.06 0.03 0.05 0.25 0.04 0.03 0.01 0.05 0.11 0.17 0.27 0.33 0.39 0.41 0.29 0.13 0.10 0.15 0.17 0.28 0.32 0.22 0.36 0.14 0.07 0.11 0.11 0.39 0.44 0.40 0.36 0.16 0.05 0.07 0.05
0.07 0.04 0.06 0.20 0.07 0.00 0.00 0.00 0.00 0.00 0.06 0.04 0.05 0.05 0.15 0.06 0.01 0.05 0.09 0.05 0.02 0.05 0.12 0.13 0.26 0.32 0.27 0.30 0.27 0.23 0.15 0.14 0.19 0.31 0.28 0.28 0.32 0.06 0.11 0.10 0.16 0.41 0.40 0.20 0.05 0.02 0.04 0.04 0.05
0.10 0.13 0.25 0.21 0.06 0.00 0.07 0.00 0.00 0.00 0.00 0.14 0.23 0.09 0.30 0.20 0.07 0.05 0.05 0.07 0.06 0.10 0.27 0.22 0.34 0.42 0.34 0.27 0.30 0.33 0.37 0.41 0.34 0.35 0.47 0.49 0.37 0.24 0.35 0.20 0.17 0.20 0.07 0.04 0.03 0.02 0.02 0.02 0.04
0.13 0.32 0.35 0.13 0.05 0.02 0.14 0.02 0.00 0.00 0.01 0.03 0.22 0.23 0.43 0.38 0.10 0.10 0.07 0.09 0.11 0.19 0.41 0.48 0.49 0.47 0.39 0.32 0.29 0.26 0.27 0.32 0.38 0.42 0.48 0.41 0.31 0.57 0.70 0.34 0.15 0.05 0.04 0.03 0.03 0.02 0.04 0.05 0.04
0.22 0.41 0.25 0.16 0.07 0.05 0.10 0.02 0.00 0.03 0.00 0.00 0.12 0.38 0.51 0.62 0.29 0.40 0.29 0.23 0.14 0.16 0.28 0.45 0.64 0.49 0.41 0.35 0.25 0.29 0.33 0.33 0.32 0.37 0.31 0.21 0.31 0.81 0.75 0.45 0.19 0.05 0.04 0.02 0.01 0.02 0.08 0.17 0.07
0.57 0.44 0.25 0.14 0.03 0.01 0.08 0.02 0.00 0.04 0.01 0.01 0.04 0.29 0.65 1.01 0.99 0.98 0.74 0.59 0.48 0.35 0.45 0.38 0.37 0.32 0.30 0.33 0.36 0.34 0.33 0.34 0.40 0.41 0.44 0.47 0.46 0.65 0.63 0.45 0.32 0.10 0.06 0.08 0.03 0.02 0.06 0.15 0.12
0.67 0.50 0.18 0.09 0.01 0.00 0.03 0.03 0.00 0.00 0.01 0.02 0.00 0.13 0.55 0.92 1.70 1.32 1.10 0.95 0.78 0.90 0.92 0.88 0.47 0.37 0.23 0.17 0.20 0.37 0.35 0.33 0.33 0.38 0.40 0.30 0.26 0.32 0.40 0.35 0.29 0.17 0.10 0.14 0.08 0.05 0.07 0.11 0.11
0.57 0.79 0.31 0.06 0.01 0.02 0.03 0.04 0.00 0.00 0.00 0.01 0.02 0.06 0.30 0.52 1.83 1.99 1.88 1.66 1.21 1.35 1.23 1.15 0.78 0.48 0.20 0.13 0.15 0.24 0.26 0.21 0.27 0.29 0.21 0.11 0.06 0.10 0.28 0.12 0.10 0.19 0.20 0.18 0.16 0.13 0.12 0.13 0.11
0.92 1.13 0.67 0.14 0.04 0.03 0.03 0.02 0.02 0.01 0.00 0.01 0.01 0.12 0.10 0.26 1.55 2.50 2.87 2.83 2.12 1.77 1.65 1.50 1.28 0.71 0.36 0.14 0.11 0.20 0.27 0.21 0.20 0.21 0.18 0.15 0.05 0.06 0.17 0.11 0.03 0.06 0.13 0.13 0.17 0.19 0.18 0.10 0.04
1.40 1.34 0.40 0.09 0.07 0.04 0.07 0.03 0.01 0.03 0.02 0.06 0.10 0.09 0.06 0.22 0.81 2.67 4.03 4.02 2.75 1.84 1.66 1.50 1.31 0.86 0.41 0.29 0.23 0.12 0.28 0.21 0.07 0.09 0.13 0.15 0.13 0.10 0.11 0.10 0.05 0.05 0.07 0.07 0.12 0.12 0.11 0.06 0.02
1.05 1.09 0.29 0.29 0.26 0.26 0.16 0.07 0.02 0.06 0.05 0.01 0.05 0.12 0.22 0.29 0.49 1.44 2.80 3.99 3.80 2.25 1.53 1.25 1.20 1.14 0.67 0.30 0.21 0.16 0.49 0.38 0.18 0.08 0.09 0.12 0.11 0.12 0.18 0.17 0.08 0.05 0.03 0.02 0.03 0.03 0.06 0.06 0.08
0.55 0.60 0.43 0.47 0.47 0.48 0.19 0.13 0.09 0.15 0.07 0.02 0.06 0.27 0.41 0.54 0.53 0.71 1.22 2.05 3.88 3.49 1.92 1.30 1.02 0.73 0.60 0.36 0.10 0.08 0.24 0.29 0.25 0.17 0.09 0.10 0.08 0.11 0.16 0.14 0.09 0.10 0.08 0.05 0.06 0.05 0.03 0.04 0.07
0.36 0.46 0.56 0.71 0.62 0.47 0.33 0.21 0.13 0.11 0.10 0.08 0.20 0.39 0.49 0.76 0.65 0.53 0.68 0.79 2.23 4.14 3.67 2.07 1.51 1.41 0.55 0.40 0.12 0.06 0.11 0.36 0.27 0.26 0.15 0.16 0.14 0.15 0.12 0.14 0.13 0.09 0.06 0.05 0.06 0.05 0.03 0.03 0.06
0.18 0.44 0.68 0.97 0.79 0.86 0.47 0.25 0.19 0.07 0.11 0.27 0.53 0.57 0.43 0.46 0.42 0.63 0.69 0.74 0.73 1.62 3.06 3.61 2.19 1.43 1.22 0.84 0.31 0.10 0.04 0.16 0.38 0.26 0.20 0.18 0.30 0.35 0.18 0.16 0.11 0.07 0.09 0.06 0.06 0.07 0.08 0.04 0.04
0.25 0.65 0.99 1.08 1.24 1.23 0.89 0.72 0.22 0.05 0.12 0.31 0.52 0.59 0.60 0.51 0.56 0.63 0.82 0.68 0.59 0.85 1.63 2.32 2.43 1.66 1.26 1.14 0.75 0.24 0.13 0.07 0.27 0.34 0.25 0.19 0.21 0.20 0.24 0.20 0.19 0.22 0.34 0.41 0.32 0.22 0.21 0.13 0.10
0.56 0.95 1.00 0.93 1.30 1.92 1.56 0.81 0.19 0.10 0.17 0.22 0.46 0.69 0.66 0.50 0.41 0.60 0.48 0.47 0.58 0.56 0.75 1.13 1.11 1.53 1.20 1.40 1.06 0.72 0.37 0.16 0.17 0.45 0.41 0.29 0.30 0.23 0.19 0.13 0.09 0.25 0.51 0.66 0.52 0.37 0.32 0.22 0.20
0.60 0.57 0.73 0.73 0.77 1.88 1.76 1.02 0.40 0.22 0.15 0.13 0.21 0.45 0.69 0.81 0.76 0.77 0.56 0.33 0.35 0.45 0.52 0.66 0.65 0.58 0.85 1.08 1.39 1.24 0.90 0.43 0.22 0.26 0.43 0.58 0.40 0.48 0.37 0.25 0.17 0.29 0.47 0.48 0.47 0.46 0.44 0.35 0.30
0.19 0.24 0.34 0.62 0.60 1.10 1.62 0.99 0.72 0.40 0.22 0.08 0.12 0.18 0.30 0.65 0.85 0.79 0.61 0.49 0.34 0.53 0.43 0.40 0.45 0.36 0.46 0.73 1.21 1.35 1.13 0.87 0.47 0.23 0.14 0.43 0.84 0.69 0.77 0.58 0.43 0.49 0.56 0.70 0.74 0.40 0.46 0.45 0.57
0.14 0.21 0.23 0.49 0.69 0.54 0.90 0.90 0.74 0.50 0.50 0.17 0.14 0.16 0.23 0.55 0.86 1.00 0.90 0.69 0.63 0.70 0.52 0.34 0.28 0.38 0.48 0.60 0.80 0.99 0.92 1.06 0.95 0.74 0.70 0.40 0.46 0.75 0.78 0.76 0.83 0.80 0.70 0.63 0.74 0.81 0.66 0.44 0.55
0.26 0.26 0.25 0.40 0.70 0.62 0.58 0.67 0.50 0.49 0.33 0.22 0.13 0.11 0.23 0.40 0.75 1.62 1.16 0.82 0.84 1.00 0.72 0.68 0.55 0.71 0.54 0.62 0.93 1.06 1.09 1.03 1.25 1.25 1.04 1.21 1.01 0.95 0.91 0.65 0.57 0.66 0.73 0.68 0.59 0.65 0.72 0.58 0.68
0.27 0.22 0.20 0.38 0.47 0.42 0.49 0.60 0.45 0.37 0.28 0.14 0.08 0.07 0.12 0.24 0.41 1.39 1.68 1.20 1.07 1.25 0.85 0.73 0.76 0.68 0.47 0.55 0.82 1.15 1.46 1.46 1.09 0.75 0.68 0.75 1.15 1.23 1.27 1.19 1.17 1.07 0.93 0.82 0.73 0.74 0.85 0.86 0.81
0.30 0.14 0.24 0.49 0.60 0.54 0.45 0.67 0.47 0.30 0.28 0.15 0.07 0.04 0.14 0.22 0.34 0.77 1.72 1.50 1.34 1.24 0.87 0.73 0.87 0.82 0.85 1.12 1.20 0.98 1.03 1.26 1.17 1.32 1.16 1.37 1.32 1.26 1.43 1.59 1.51 1.57 1.57 1.30 1.23 1.14 1.14 1.09 0.79
0.43 0.19 0.24 0.40 0.62 1.03 0.43 0.75 0.56 0.42 0.31 0.15 0.05 0.06 0.17 0.26 0.32 0.45 1.02 1.32 1.51 1.57 0.95 0.70 1.20 1.30 1.23 1.19 1.65 1.60 1.71 1.37 1.41 1.60 1.67 1.60 1.78 1.92 1.98 2.01 2.07 1.87 1.87 2.05 1.84 1.68 1.56 1.48 1.30
0.42 0.45 0.43 0.67 0.85 1.42 0.54 0.69 0.72 0.59 0.55 0.32 0.07 0.14 0.26 0.29 0.35 0.34 0.44 1.04 1.59 1.39 1.37 1.00 0.98 1.10 1.11 1.08 1.45 1.64 1.31 1.21 1.09 1.23 1.47 1.43 1.48 1.68 1.98 2.11 2.01 1.95 1.61 1.48 1.59 1.58 1.45 1.37 1.21
0.73 0.95 1.43 1.46 1.76 0.86 0.54 0.70 0.77 0.62 0.40 0.36 0.28 0.37 0.43 0.42 0.50 0.38 0.40 0.76 1.60 1.17 1.26 1.04 1.13 1.13 1.31 1.22 1.54 1.53 1.51 1.46 1.43 1.44 1.43 1.44 1.27 1.08 1.10 1.41 1.48 1.29 1.25 1.18 1.20 1.04 1.00 1.10 1.07
0.97 0.91 1.18 0.88 0.75 0.63 0.38 0.88 1.06 0.88 0.71 0.65 0.50 0.73 1.00 1.09 1.09 0.80 0.65 0.86 1.28 1.42 1.22 1.09 1.08 1.17 1.41 1.56 1.73 1.37 1.64 1.57 1.56 1.37 1.38 1.31 1.29 1.41 1.22 1.05 1.32 1.41 1.13 0.87 0.86 0.75 0.58 0.65 0.66
0.84 0.87 0.77 1.11 0.58 0.62 0.60 0.97 1.22 1.31 1.24 0.73 1.22 1.33 1.37 1.52 1.75 1.31 1.41 1.57 1.15 1.22 1.26 1.19 1.02 1.01 0.91 0.85 0.79 0.88 1.23 1.28 1.32 1.13 0.90 0.86 0.93 0.95 0.95 0.84 0.81 0.81 0.74 0.81 0.85 0.83 0.73 0.63 0.62
0.60 0.47 0.78 1.34 0.94 0.60 0.39 0.52 1.62 1.75 1.33 1.13 1.26 1.28 1.25 1.54 1.58 1.37 1.51 1.26 1.21 1.08 1.06 0.87 0.74 0.73 0.52 0.61 0.51 0.57 0.78 0.69 0.74 0.81 0.89 0.84 0.77 0.83 0.88 0.75 0.65 0.50 0.42 0.46 0.51 0.56 0.63 0.73 0.67
0.71 0.77 0.47 0.61 0.52 0.45 0.27 0.79 1.41 1.41 1.13 0.92 0.91 0.92 0.93 0.96 0.97 1.05 1.14 1.12 0.97 1.04 0.84 0.83 0.68 0.84 0.52 0.82 0.63 0.33 0.55 0.62 0.37 0.40 0.58 0.61 0.69 0.65 0.54 0.67 0.82 0.68 0.53 0.52 0.53 0.53 0.58 0.70 0.69
0.25 0.27 0.20 0.73 0.54 0.41 0.41 0.85 0.96 0.92 0.80 0.61 0.47 0.29 0.18 0.12 0.10 0.18 0.34 0.51 0.56 0.56 0.61 0.74 1.03 0.90 0.59 0.79 0.69 0.45 0.55 0.85 0.62 0.46 0.40 0.47 0.55 0.62 0.51 0.40 0.45 0.62 0.68 0.69 0.69 0.85 0.80 0.69 0.74